EHI
0 0 0 0 0 0 0 0 0 0 0 0 0 0 0 0 0 0 6 19 33 46 49 49 55 58 59 66 74 81 84 80 73 63 57 54 47 37 29 24 21 20 17 13 15 17 16 15 16
0 0 0 0 0 0 0 0 0 0 0 0 0 0 0 0 0 0 8 22 34 41 43 47 58 63 65 73 81 86 90 88 82 76 70 66 58 47 37 30 28 25 20 14 13 16 15 14 14
0 0 0 0 0 0 0 0 0 0 0 0 0 1 2 2 0 3 15 29 34 32 36 51 64 67 71 78 85 91 95 96 93 89 85 80 72 61 48 39 34 30 23 14 12 13 13 13 12
0 0 0 0 0 0 0 0 0 0 0 0 1 3 5 4 4 11 25 34 33 25 31 52 66 70 73 78 84 90 95 97 96 93 90 86 80 69 57 47 39 33 24 16 13 13 14 13 12
0 0 0 0 0 0 0 0 0 0 0 0 1 4 8 10 13 23 30 31 28 22 28 46 60 66 70 74 79 86 91 93 93 92 90 87 83 74 64 57 49 39 29 20 16 15 14 13 12
0 0 0 0 0 0 0 0 0 0 0 1 2 7 15 21 26 31 31 25 23 25 31 40 47 53 60 66 72 78 83 86 88 88 88 88 85 77 70 66 61 52 39 26 18 15 13 13 12
0 0 0 0 0 0 0 0 0 0 2 3 4 10 23 35 39 38 32 25 23 29 36 37 36 37 42 50 59 67 73 78 80 82 84 86 83 76 69 67 65 57 44 30 19 13 11 11 11
0 0 0 0 0 0 0 0 0 1 5 9 12 18 32 47 50 47 41 34 30 32 36 37 35 31 29 32 41 52 62 70 73 75 77 75 66 57 51 52 56 51 39 28 19 13 11 10 9
0 0 0 0 0 0 0 0 0 1 6 14 22 31 42 52 54 53 51 48 44 41 41 41 39 34 26 26 32 38 47 55 58 60 61 52 36 29 29 38 51 47 33 24 16 12 11 8 5
0 0 0 0 0 0 0 0 0 2 6 14 26 37 44 46 47 48 52 57 57 55 50 46 44 41 36 37 42 40 41 44 43 46 46 35 27 24 27 43 53 44 28 19 13 9 6 3 1
0 0 0 0 0 0 0 1 1 3 7 12 20 30 35 36 36 36 42 52 59 60 56 53 53 52 51 54 58 54 52 52 49 49 47 44 47 46 44 52 54 42 28 17 13 7 2 0 0
0 0 0 0 0 0 0 1 3 6 10 12 16 21 26 30 30 30 34 43 51 54 55 57 61 62 62 65 66 62 61 62 62 61 60 61 66 65 60 59 56 48 38 28 20 12 5 2 1
0 0 0 0 0 0 0 1 4 8 11 12 17 21 24 27 31 33 36 42 47 49 52 57 62 64 66 68 66 61 60 60 62 65 64 65 68 69 67 67 63 54 49 42 30 19 14 11 6
0 0 0 0 0 0 0 1 4 9 11 13 17 23 26 30 35 40 42 45 48 49 50 55 59 62 66 65 62 59 57 57 60 64 64 61 63 67 69 69 63 53 48 46 37 27 24 21 15
0 0 0 0 0 0 0 2 6 10 12 12 16 23 30 34 39 43 45 44 47 47 48 50 52 56 58 58 56 54 53 53 55 59 60 57 57 63 67 64 57 49 46 47 45 38 33 30 26
0 0 0 0 0 0 0 3 9 12 11 12 17 23 28 34 39 41 40 39 40 41 43 42 41 43 47 48 46 45 45 45 46 49 49 46 45 51 57 56 51 46 46 48 49 49 46 40 36
0 0 0 0 0 0 0 4 9 11 11 12 16 18 23 29 32 33 33 32 32 35 38 36 34 36 39 39 37 35 35 35 37 39 38 33 30 34 41 46 44 41 42 44 47 52 54 48 44
0 0 0 0 0 0 1 5 8 10 10 10 11 13 18 22 22 22 23 25 26 29 31 31 33 35 36 34 31 30 29 29 30 31 30 25 22 23 29 34 34 32 33 37 41 45 47 44 42
0 0 0 0 0 0 2 7 10 10 9 8 9 12 15 16 15 14 16 19 22 23 24 26 29 31 32 31 29 29 29 28 27 26 26 23 20 19 21 24 26 27 27 30 34 35 33 31 31
0 0 0 0 0 0 2 6 9 10 10 10 10 11 11 12 12 12 13 17 20 20 20 21 23 24 25 25 26 27 28 26 24 24 24 22 18 16 16 18 20 23 24 25 27 26 23 20 18
0 0 0 0 0 0 1 3 5 7 9 11 10 9 8 9 11 10 11 14 16 16 16 16 17 18 19 19 20 22 22 20 19 20 19 17 14 13 14 14 14 16 19 21 22 20 17 12 9
0 0 0 0 0 0 0 1 2 4 6 7 7 7 7 9 10 9 9 10 10 10 10 10 10 12 13 15 16 17 16 15 14 15 13 11 10 11 12 12 11 11 14 17 18 16 13 9 6
0 0 0 0 0 0 0 0 1 3 4 4 4 6 8 9 9 8 7 5 5 5 5 5 6 7 9 11 13 14 14 12 11 10 9 8 7 8 9 9 10 11 12 13 13 12 10 7 4
0 0 0 0 0 0 0 0 1 2 3 4 5 7 9 8 6 5 4 3 3 3 2 2 3 4 5 7 8 10 10 9 8 7 7 7 6 5 5 7 8 9 9 9 8 7 5 3 2
0 0 0 0 0 0 0 0 0 1 2 5 8 9 9 7 4 2 2 3 2 1 1 1 1 1 2 3 4 5 6 7 7 7 6 6 5 3 3 4 6 5 5 5 5 3 1 1 0
0 0 0 0 0 0 0 0 1 1 2 6 9 10 8 5 3 2 2 2 1 0 0 0 0 0 0 1 1 2 3 5 6 5 4 3 2 1 1 2 3 2 1 1 1 1 0 0 0
0 0 0 0 0 0 0 0 1 0 1 5 9 9 6 3 1 1 1 1 0 0 0 0 0 0 0 0 0 1 2 3 4 3 2 1 0 0 0 1 1 1 0 0 0 0 0 0 0
0 0 0 0 0 0 0 0 0 0 1 4 8 8 5 2 0 0 0 0 0 0 0 0 0 0 0 0 0 0 0 1 2 2 1 0 0 0 0 0 0 0 0 0 0 0 0 0 0
0 0 0 0 0 0 0 0 0 0 1 3 6 7 4 1 0 0 0 0 0 0 0 0 0 0 0 0 0 0 0 0 1 1 0 0 0 0 0 0 0 0 0 0 0 0 0 0 0
0 0 0 0 0 0 0 0 0 0 1 3 6 6 3 1 0 0 0 0 0 0 0 0 0 0 0 0 0 0 0 0 0 0 0 0 0 0 0 0 0 0 0 0 0 0 0 0 0
Wind_Speed
9 8 7 6 8 9 9 4 2 1 1 3 4 4 4 4 6 6 6 12 14 18 19 19 15 14 14 15 15 16 16 17 16 16 15 15 14 13 13 12 11 11 11 11 11 11 11 12 12
7 6 7 7 9 10 8 5 4 2 4 6 3 4 4 1 4 6 8 13 17 18 18 18 17 15 15 15 16 16 17 17 16 16 15 15 14 13 13 13 12 11 10 11 11 11 11 11 11
7 8 8 7 11 10 5 6 2 3 4 3 2 2 1 3 4 5 10 16 17 17 17 18 17 16 15 16 16 16 17 17 17 16 15 15 14 13 12 12 12 11 10 10 11 11 11 11 11
7 8 7 10 12 8 2 1 3 5 2 1 3 3 3 5 3 8 15 18 18 17 17 19 16 16 15 15 16 16 17 17 16 16 15 14 14 13 12 12 12 11 11 11 11 11 10 10 10
8 8 10 12 12 5 3 3 4 5 2 2 4 4 5 6 7 14 17 17 17 16 16 19 15 15 14 14 14 15 15 15 15 15 14 14 13 12 12 11 11 11 11 11 11 11 10 10 9
8 7 10 11 10 6 4 2 4 4 2 3 4 5 6 7 10 14 16 15 16 16 16 17 15 15 14 14 13 13 13 13 13 13 13 13 12 11 11 11 11 11 11 11 11 10 10 9 9
9 8 9 7 7 7 3 1 3 3 2 2 3 5 8 9 10 13 14 14 14 15 16 16 16 15 14 12 11 11 11 11 11 11 12 12 12 11 11 10 10 10 10 11 11 11 10 9 8
7 7 8 7 7 6 3 1 1 3 2 2 2 5 8 10 12 13 14 14 14 13 14 14 15 15 14 14 13 12 11 11 11 11 12 12 12 12 11 11 10 11 11 11 11 11 10 9 8
8 9 7 6 5 5 3 1 2 1 1 3 3 4 9 15 16 15 14 14 13 12 12 12 13 12 12 12 13 12 12 11 11 12 12 11 11 12 12 12 12 11 11 11 11 11 10 9 9
9 9 4 2 2 1 1 0 1 3 6 7 8 9 11 14 15 15 15 15 15 13 12 11 11 11 11 9 10 9 10 10 11 10 12 11 8 8 8 12 11 11 11 11 11 10 11 11 9
9 6 2 3 3 4 2 0 1 1 5 5 6 9 11 12 12 12 12 12 12 11 10 10 9 8 8 7 7 6 5 7 9 9 10 8 7 6 6 6 9 10 12 11 11 11 10 10 7
6 5 4 3 2 4 3 1 1 2 5 5 4 8 10 10 9 9 10 9 9 10 9 8 8 8 7 6 5 5 4 5 5 7 9 7 5 6 6 5 7 7 7 7 8 8 9 9 8
8 5 5 5 5 5 4 2 1 4 4 4 6 7 7 7 7 5 6 7 7 7 7 6 6 6 5 5 4 5 5 5 6 5 7 7 6 6 6 5 5 7 6 7 7 7 8 8 8
5 4 5 5 4 5 5 5 4 4 3 5 7 7 7 7 6 6 5 5 5 5 5 5 5 5 5 5 4 4 4 4 5 5 7 8 6 6 6 6 6 6 5 6 6 7 7 7 6
4 7 8 6 6 6 8 7 4 3 3 6 8 8 9 8 8 7 6 4 4 4 3 3 4 3 4 4 5 4 4 4 4 4 5 6 6 5 5 5 5 6 5 6 6 7 6 6 6
9 10 9 8 5 6 10 8 7 3 5 6 7 8 8 9 9 8 7 6 5 3 3 2 1 2 2 3 3 3 2 3 3 2 3 4 6 5 5 5 5 5 5 6 6 6 7 6 6
10 10 8 10 4 5 7 7 7 3 6 6 6 7 8 9 10 9 8 7 6 5 4 2 2 1 0 1 2 2 2 2 2 2 2 3 4 5 6 5 4 5 5 6 7 6 6 6 6
7 7 7 7 5 5 6 8 7 5 6 7 6 7 7 9 10 9 9 8 8 7 6 4 3 2 1 0 1 1 1 2 2 2 2 3 3 4 4 4 5 6 6 6 6 6 6 6 5
3 5 6 5 4 4 6 8 7 6 6 7 6 6 8 9 9 9 10 9 8 8 7 6 5 4 2 0 1 1 1 1 1 1 1 2 3 3 3 4 5 6 6 7 7 6 7 5 5
6 7 7 7 5 3 7 8 7 6 5 5 6 6 7 7 8 9 10 9 9 9 8 7 6 4 3 2 1 0 1 0 0 0 0 1 2 2 3 4 4 5 5 7 7 7 6 5 6
8 7 5 6 6 6 7 9 9 8 7 7 6 7 7 6 7 8 9 10 10 9 9 7 7 6 5 3 1 1 1 1 1 0 0 1 2 1 2 3 4 5 5 4 6 7 8 6 6
7 4 4 6 8 7 9 6 11 11 9 8 7 7 7 7 7 7 8 9 9 9 8 8 8 7 7 4 2 1 0 1 0 1 1 2 2 3 2 3 3 4 4 4 5 6 6 7 6
1 3 5 7 7 6 8 8 8 11 10 10 9 8 7 7 7 8 8 8 8 8 8 8 8 8 8 6 5 3 2 2 1 1 2 1 2 3 3 3 3 2 2 2 3 3 5 5 6
3 5 5 7 8 10 6 8 5 8 7 10 11 9 8 8 7 7 7 7 8 8 8 8 8 9 8 8 6 5 4 3 3 2 1 1 2 3 5 3 3 3 2 2 1 0 1 2 3
8 8 7 9 8 6 4 6 1 6 3 6 11 11 9 8 7 6 7 8 8 9 8 8 8 8 8 8 8 7 6 5 4 3 3 3 3 4 5 4 4 4 4 4 3 3 2 1 2
7 9 7 6 6 3 6 6 5 6 4 6 10 11 10 8 7 7 7 7 7 8 8 8 8 8 8 8 8 8 7 5 5 6 5 4 4 4 5 5 6 6 5 5 5 5 5 4 4
6 7 4 7 7 7 4 4 7 6 6 9 11 11 10 9 8 7 7 7 7 7 7 7 8 8 8 8 8 8 8 7 7 7 6 5 6 6 7 7 7 7 7 7 6 6 6 6 6
4 2 4 7 6 7 5 6 4 11 11 11 11 11 10 10 8 8 6 6 6 6 6 7 8 8 8 8 8 7 8 8 8 8 9 8 7 7 8 8 8 8 8 8 8 7 7 8 7
6 5 6 6 6 7 6 0 5 3 10 13 12 12 12 10 9 7 6 6 6 6 6 7 7 8 8 8 8 8 8 8 8 8 8 8 8 8 9 9 9 9 9 9 9 9 9 9 9
4 4 5 6 6 7 7 2 7 3 6 11 13 12 12 10 9 8 7 6 6 6 6 7 7 8 7 7 8 8 8 8 9 9 8 8 9 9 9 9 10 9 10 10 10 10 10 10 10
Wind_Direction
230 219 227 236 236 232 228 160 158 127 47 356 319 286 298 327 354 39 92 145 144 142 139 146 140 138 137 137 138 141 143 146 148 149 150 150 150 149 147 145 144 141 138 135 134 134 132 131 133
211 203 223 233 242 227 201 166 176 37 349 325 290 232 237 277 41 84 127 142 147 143 145 149 141 140 138 136 136 138 142 145 147 149 150 151 151 151 150 149 148 145 142 141 139 138 137 137 139
203 223 232 228 234 240 170 138 114 346 312 288 244 212 235 50 76 112 133 146 148 146 147 140 146 143 141 139 139 140 142 144 147 150 151 152 152 153 154 154 153 150 147 146 145 143 142 143 145
197 205 225 237 228 229 264 145 334 312 303 229 222 183 122 45 60 122 138 150 150 149 146 143 151 146 145 144 143 144 145 146 149 151 152 153 154 155 157 159 158 155 153 152 150 147 147 149 150
225 218 215 225 229 212 235 285 305 294 288 214 213 183 116 68 93 126 143 150 150 148 145 146 151 148 148 147 147 147 148 148 150 151 153 154 155 157 159 161 161 159 159 157 154 153 153 155 155
207 222 223 218 207 196 203 254 277 280 262 201 205 185 107 101 119 134 143 151 150 147 145 144 151 153 153 153 152 150 150 151 152 153 154 155 156 158 160 162 162 161 162 161 159 159 160 159 159
223 224 233 224 196 184 172 261 279 291 228 172 199 172 124 117 125 134 143 148 148 149 145 151 157 159 159 157 156 154 153 153 153 154 155 157 159 162 165 165 165 165 166 166 164 166 168 166 166
245 234 224 213 200 164 145 225 255 309 21 53 223 183 141 135 135 139 145 147 151 152 151 156 162 162 165 165 164 162 160 159 158 160 163 163 165 170 171 174 171 173 173 174 172 173 173 171 172
235 236 212 190 192 152 133 185 97 182 157 102 85 62 112 139 145 148 149 151 154 155 155 159 163 165 171 167 160 170 170 168 169 172 172 176 185 182 181 185 166 180 181 180 178 178 176 176 178
220 230 195 139 223 186 115 339 22 181 140 126 112 99 126 149 157 158 159 158 159 161 163 164 167 168 175 164 163 179 184 176 194 182 182 197 195 194 194 148 171 187 186 185 184 182 184 202 192
217 235 177 206 248 287 266 139 23 216 111 89 118 132 146 157 164 165 161 159 158 159 165 168 169 174 177 171 174 183 189 180 198 191 193 204 197 197 199 170 178 191 192 196 181 191 203 207 207
214 216 234 233 228 257 269 234 132 66 52 48 84 135 147 158 165 166 156 152 152 157 164 168 168 174 186 182 183 186 195 187 197 191 204 200 205 206 199 200 195 195 199 202 198 208 203 210 208
217 194 211 237 242 254 245 208 131 83 59 76 101 125 140 146 145 137 130 135 141 148 159 167 174 172 187 192 206 197 205 201 199 199 206 211 208 209 203 206 208 212 204 200 210 215 205 208 209
199 216 222 225 214 192 191 158 160 84 76 110 112 114 111 104 105 106 107 118 126 138 153 161 175 172 185 194 211 212 213 214 216 210 212 212 217 214 213 212 213 222 215 214 216 213 206 212 212
226 221 200 185 186 171 178 157 116 83 126 127 120 108 92 82 79 74 71 73 88 108 125 146 160 163 190 199 211 213 218 219 228 216 213 214 221 214 214 221 218 223 219 213 222 221 212 208 207
212 215 185 144 171 168 218 160 106 112 141 129 116 107 97 80 70 62 58 54 56 67 91 105 124 153 199 206 213 220 227 223 230 224 217 225 228 219 217 221 225 222 219 211 213 216 213 209 207
203 205 168 140 145 181 218 138 113 129 137 128 119 110 101 85 64 54 50 50 46 48 54 70 84 93 218 219 213 215 215 237 231 217 219 232 239 237 231 229 229 223 224 215 215 207 210 205 198
184 182 170 154 133 184 168 132 126 132 141 134 124 110 97 80 62 53 49 48 49 48 46 44 52 57 36 170 194 180 170 219 234 221 213 216 229 241 246 242 231 230 228 221 216 205 206 203 187
219 208 172 127 125 169 147 139 135 139 146 137 128 111 97 81 70 60 53 48 49 48 46 43 32 29 17 351 220 195 179 191 211 210 245 262 253 248 247 253 236 237 232 225 216 203 197 191 169
219 209 169 137 133 176 148 142 141 147 143 131 126 112 100 91 73 59 52 47 44 41 35 36 31 25 14 352 320 353 86 126 60 294 12 297 287 276 253 253 254 246 237 229 215 203 199 191 184
219 221 175 151 148 169 171 168 166 155 146 134 127 118 106 88 73 59 48 42 39 34 28 28 27 22 16 3 357 119 146 147 157 177 68 11 349 348 319 279 261 256 244 234 222 211 205 199 198
200 191 196 182 202 181 213 209 171 169 168 163 151 138 118 100 84 67 53 43 37 30 29 32 30 28 22 18 31 27 18 170 72 13 56 55 30 16 356 323 293 269 258 249 235 222 216 202 197
192 159 203 215 233 220 211 248 158 171 187 179 167 153 130 111 92 75 58 47 41 34 31 33 35 31 27 28 39 47 60 74 75 67 65 57 44 26 10 358 347 322 286 264 243 239 225 212 203
173 180 190 221 230 231 218 246 194 174 195 172 164 154 135 117 98 85 73 59 48 41 37 36 39 37 32 34 41 52 65 73 77 70 58 57 50 38 30 20 23 21 23 354 312 265 231 206 197
208 217 212 213 218 224 155 244 138 111 129 161 159 150 139 121 107 91 74 60 49 41 37 38 43 42 37 42 44 45 52 61 68 64 53 51 51 42 32 32 38 36 40 44 51 65 50 58 126
211 240 252 256 247 206 178 236 102 103 110 134 141 141 136 125 113 94 76 64 54 46 40 41 45 47 45 48 50 49 51 55 59 56 54 53 54 51 47 55 59 54 52 54 56 58 56 57 68
206 234 295 277 268 264 214 164 135 140 147 146 142 144 139 128 114 99 84 70 60 51 45 44 49 52 52 53 59 59 59 62 63 63 59 56 57 58 54 59 63 61 60 61 64 62 59 62 66
284 239 232 253 263 261 242 229 187 170 177 170 163 157 144 134 123 109 93 79 67 60 60 56 60 61 60 60 60 63 61 63 66 66 63 60 61 64 62 59 59 60 62 64 66 70 66 68 65
191 208 245 263 280 282 278 311 60 146 176 175 170 159 149 143 130 118 106 91 81 73 67 63 65 68 67 66 66 67 67 67 70 70 68 67 65 65 66 64 64 62 62 65 67 70 72 73 71
259 254 246 262 261 265 286 59 80 89 157 164 157 149 143 137 129 123 114 103 89 79 74 71 72 73 73 74 74 72 73 73 72 72 71 72 70 67 67 66 67 66 65 64 66 68 68 71 73